GW3320 Weather Reports


Display with metric or nautical units.
time (UTC)temp
F
wind
direction
speed
MPH
gust
MPH
rain 1hr
in
rain 24hr
in
rain mn
in
humidity
%
barometer
mb
20260507153530 59 192 10.0 17.0 0.00 0.00 0.00 55 1013.9
20260507153041 58 227 9.0 16.0 0.00 0.00 0.00 57 1014.0
20260507152525 58 212 9.0 18.0 0.00 0.00 0.00 58 1014.1
20260507152031 58 205 10.0 18.0 0.00 0.00 0.00 59 1014.2
20260507151542 57 241 9.0 17.0 0.00 0.00 0.00 59 1014.4
20260507151023 57 207 8.0 19.0 0.00 0.00 0.00 60 1014.3
20260507150523 57 242 11.0 19.0 0.00 0.00 0.00 59 1014.3
20260507150043 56 176 8.0 17.0 0.00 0.00 0.00 61 1014.4
20260507145524 56 217 9.0 16.0 0.00 0.01 0.00 62 1014.4
20260507145027 55 227 9.0 16.0 0.00 0.01 0.00 63 1014.5
20260507144541 55 233 10.0 16.0 0.00 0.01 0.00 64 1014.6
20260507144027 54 225 7.0 15.0 0.00 0.01 0.00 66 1014.6
20260507143525 54 227 9.0 15.0 0.00 0.01 0.00 67 1014.7
20260507143056 54 239 9.0 14.0 0.00 0.01 0.00 68 1014.8
20260507142525 53 221 9.0 16.0 0.00 0.01 0.00 69 1014.8
20260507142030 53 232 9.0 16.0 0.00 0.01 0.00 69 1014.9
20260507141550 52 217 11.0 16.0 0.00 0.01 0.00 70 1014.9
20260507141025 52 226 10.0 18.0 0.00 0.01 0.00 71 1015.0
20260507140528 51 230 9.0 18.0 0.00 0.01 0.00 72 1015.1
20260507140039 51 225 10.0 15.0 0.00 0.01 0.00 74 1015.3
20260507135525 50 222 9.0 16.0 0.00 0.01 0.00 74 1015.2
20260507135028 50 221 10.0 16.0 0.00 0.01 0.00 76 1015.5
20260507134552 49 256 7.0 14.0 0.00 0.01 0.00 77 1015.4
20260507134024 49 233 7.0 14.0 0.00 0.01 0.00 80 1015.6
20260507133525 48 232 7.0 12.0 0.00 0.01 0.00 81 1015.5
20260507133118 47 238 6.0 10.0 0.00 0.01 0.00 83 1015.5
20260507132529 47 231 6.0 10.0 0.00 0.01 0.00 84 1015.3
20260507132024 46 220 6.0 11.0 0.00 0.01 0.00 85 1015.4
20260507131547 46 238 6.0 11.0 0.00 0.01 0.00 85 1015.4
20260507131025 45 201 6.0 10.0 0.00 0.01 0.00 86 1015.4
20260507130524 45 203 5.0 11.0 0.00 0.01 0.00 87 1015.4
20260507130053 44 209 6.0 12.0 0.00 0.01 0.00 87 1015.5
20260507125525 44 213 6.0 12.0 0.00 0.01 0.00 88 1015.5
20260507125025 44 225 7.0 11.0 0.00 0.01 0.00 88 1015.5
20260507124547 43 196 6.0 10.0 0.00 0.01 0.00 89 1015.4
20260507124025 43 206 6.0 10.0 0.00 0.01 0.00 89 1015.4
20260507123531 43 208 5.0 8.0 0.00 0.01 0.00 90 1015.3
20260507123044 42 207 4.0 7.0 0.00 0.01 0.00 90 1015.3
20260507122525 42 203 4.0 7.0 0.00 0.01 0.00 90 1015.3
20260507122025 41 199 4.0 8.0 0.00 0.01 0.00 90 1015.3
20260507121544 41 197 4.0 8.0 0.00 0.01 0.00 90 1015.3
20260507121025 41 194 4.0 7.0 0.00 0.01 0.00 90 1015.3
20260507120524 41 194 4.0 7.0 0.00 0.01 0.00 90 1015.4
20260507120044 41 193 4.0 7.0 0.00 0.01 0.00 89 1015.4
20260507115525 41 195 4.0 7.0 0.00 0.01 0.00 89 1015.3
20260507115024 41 204 4.0 7.0 0.00 0.01 0.00 89 1015.4
20260507114558 41 197 4.0 8.0 0.00 0.01 0.00 89 1015.3
20260507114025 41 194 5.0 9.0 0.00 0.01 0.00 89 1015.3
20260507113525 41 217 6.0 10.0 0.00 0.01 0.00 89 1015.4
20260507113041 41 219 6.0 10.0 0.00 0.01 0.00 89 1015.5
20260507112525 41 215 6.0 8.0 0.00 0.01 0.00 89 1015.5
20260507112027 41 213 5.0 10.0 0.00 0.01 0.00 89 1015.5
20260507111539 41 215 5.0 10.0 0.00 0.01 0.00 89 1015.5
20260507111024 41 198 6.0 9.0 0.00 0.01 0.00 89 1015.5
20260507110525 41 212 4.0 8.0 0.00 0.01 0.00 89 1015.5
20260507110048 41 205 5.0 8.0 0.00 0.01 0.00 89 1015.4
20260507105525 41 211 4.0 8.0 0.00 0.01 0.00 89 1015.4
20260507105025 41 214 5.0 8.0 0.00 0.01 0.00 89 1015.5
20260507104541 41 211 4.0 7.0 0.00 0.01 0.00 89 1015.5
20260507104024 41 211 4.0 8.0 0.00 0.01 0.00 89 1015.6
20260507103522 42 211 4.0 8.0 0.00 0.01 0.00 89 1015.7
20260507103048 42 207 5.0 8.0 0.00 0.01 0.00 89 1015.7
20260507102524 42 220 5.0 8.0 0.00 0.01 0.00 89 1015.7
20260507102025 42 234 4.0 8.0 0.00 0.01 0.00 88 1015.8
20260507101540 42 214 5.0 10.0 0.00 0.01 0.00 88 1015.8
20260507101025 42 217 5.0 10.0 0.00 0.01 0.00 88 1015.9
20260507100525 42 216 5.0 10.0 0.00 0.01 0.00 88 1015.9
20260507100050 42 216 6.0 10.0 0.00 0.01 0.00 88 1015.9
20260507095525 42 217 5.0 9.0 0.00 0.01 0.00 87 1015.9
20260507095025 43 210 5.0 9.0 0.00 0.01 0.00 87 1016.0
20260507094556 43 215 6.0 9.0 0.00 0.01 0.00 87 1016.0
20260507094025 43 226 5.0 9.0 0.00 0.01 0.00 86 1016.1
20260507093525 43 219 5.0 11.0 0.00 0.01 0.00 86 1016.1
20260507093044 43 223 6.0 11.0 0.00 0.01 0.00 86 1015.9
20260507092525 44 227 6.0 10.0 0.00 0.01 0.00 86 1016.0
20260507092024 44 228 6.0 10.0 0.00 0.01 0.00 86 1016.0
20260507091540 44 219 6.0 10.0 0.00 0.01 0.00 86 1016.0
20260507091025 44 201 6.0 10.0 0.00 0.01 0.00 86 1016.0
20260507090526 44 217 5.0 9.0 0.00 0.01 0.00 86 1016.0
20260507090043 43 221 4.0 10.0 0.00 0.01 0.00 86 1016.0
20260507085525 43 224 5.0 10.0 0.00 0.02 0.00 86 1016.0
20260507085025 43 215 4.0 8.0 0.00 0.02 0.00 86 1016.0
20260507084544 43 218 4.0 7.0 0.00 0.02 0.00 85 1016.1
20260507084026 44 219 4.0 7.0 0.00 0.02 0.00 84 1016.1
20260507083526 44 219 3.0 8.0 0.00 0.02 0.00 84 1016.1
20260507083044 44 224 5.0 9.0 0.00 0.02 0.00 84 1016.2
20260507082524 44 224 4.0 9.0 0.00 0.02 0.00 84 1016.3
20260507082025 45 232 4.0 9.0 0.00 0.02 0.00 83 1016.4
20260507081544 45 226 4.0 9.0 0.00 0.02 0.00 83 1016.4
20260507081025 45 226 5.0 8.0 0.00 0.02 0.00 83 1016.4
20260507080525 45 220 5.0 9.0 0.00 0.02 0.00 82 1016.5
20260507080045 45 220 5.0 9.0 0.00 0.02 0.00 82 1016.6
20260507075525 45 240 6.0 9.0 0.00 0.02 0.00 82 1016.6
20260507075025 46 229 4.0 9.0 0.00 0.02 0.00 82 1016.7
20260507074547 46 229 4.0 9.0 0.00 0.02 0.00 82 1016.7
20260507074025 46 229 4.0 9.0 0.00 0.02 0.00 82 1016.8
20260507073526 46 219 5.0 9.0 0.00 0.02 0.00 82 1016.8
20260507073045 46 223 4.0 10.0 0.00 0.02 0.00 81 1016.8
20260507072525 46 223 5.0 10.0 0.00 0.02 0.00 81 1017.0
20260507072024 46 247 5.0 10.0 0.00 0.02 0.00 81 1017.1
20260507071546 46 227 5.0 9.0 0.00 0.02 0.00 81 1017.1
20260507071025 46 224 5.0 9.0 0.00 0.02 0.00 81 1017.2
20260507070526 46 216 5.0 8.0 0.00 0.02 0.00 80 1017.2
20260507070054 46 217 5.0 11.0 0.00 0.02 0.00 80 1017.2
20260507065525 46 224 5.0 11.0 0.00 0.02 0.00 80 1017.4
20260507065028 46 228 4.0 11.0 0.00 0.02 0.00 79 1017.4
20260507064550 46 239 5.0 11.0 0.00 0.02 0.00 79 1017.4
20260507064026 46 227 6.0 10.0 0.00 0.02 0.00 80 1017.5
20260507063526 46 221 4.0 8.0 0.00 0.02 0.00 79 1017.4
20260507063101 46 218 3.0 7.0 0.00 0.02 0.00 79 1017.5
20260507062526 46 218 4.0 7.0 0.00 0.02 0.00 80 1017.5
20260507062025 46 217 3.0 5.0 0.00 0.02 0.00 79 1017.6
20260507061544 46 217 3.0 7.0 0.00 0.02 0.00 79 1017.6
20260507061025 46 217 3.0 7.0 0.00 0.02 0.00 79 1017.6
20260507060524 45 214 2.0 5.0 0.00 0.02 0.00 79 1017.6
20260507060053 46 215 2.0 4.0 0.00 0.02 0.00 78 1017.7
20260507055526 46 215 2.0 4.0 0.00 0.02 0.00 78 1017.7
20260507055025 46 213 2.0 4.0 0.00 0.02 0.00 78 1017.7
20260507054541 46 212 2.0 4.0 0.00 0.02 0.00 78 1017.7
20260507054026 46 213 2.0 5.0 0.00 0.02 0.00 77 1017.7
20260507053526 47 213 2.0 5.0 0.00 0.02 0.00 76 1017.7
20260507053044 47 213 3.0 6.0 0.00 0.02 0.00 75 1017.7
20260507052525 47 213 3.0 6.0 0.00 0.02 0.00 75 1017.7
20260507052025 48 213 3.0 6.0 0.00 0.02 0.00 75 1017.8
20260507051542 47 213 3.0 6.0 0.00 0.02 0.00 75 1017.8
20260507051025 47 210 2.0 5.0 0.00 0.02 0.00 74 1017.8
20260507050525 48 210 2.0 7.0 0.00 0.02 0.00 73 1017.8
20260507050040 48 209 3.0 7.0 0.00 0.02 0.00 73 1017.8
20260507045526 48 224 3.0 6.0 0.00 0.02 0.02 72 1017.9
20260507045027 48 225 3.0 7.0 0.00 0.02 0.02 72 1017.8
20260507044556 48 222 4.0 8.0 0.00 0.02 0.02 71 1017.8
20260507044027 49 229 3.0 8.0 0.00 0.02 0.02 71 1017.8
20260507043525 49 223 4.0 7.0 0.00 0.02 0.02 70 1017.8
20260507043042 49 227 4.0 7.0 0.00 0.02 0.02 70 1017.9
20260507042526 49 229 3.0 7.0 0.00 0.02 0.02 69 1017.8
20260507042028 49 229 4.0 8.0 0.00 0.02 0.02 68 1017.8
20260507041546 50 234 3.0 8.0 0.00 0.02 0.02 68 1017.9
20260507041025 50 237 4.0 8.0 0.00 0.02 0.02 67 1017.9
20260507040527 50 223 3.0 7.0 0.00 0.02 0.02 67 1017.9
20260507040047 50 223 3.0 7.0 0.00 0.02 0.02 66 1017.9
20260507035529 51 222 3.0 7.0 0.00 0.02 0.02 65 1017.9
20260507035026 51 223 3.0 7.0 0.00 0.02 0.02 65 1017.9
20260507034546 51 223 3.0 7.0 0.00 0.02 0.02 65 1017.9
20260507034027 51 222 3.0 6.0 0.00 0.02 0.02 65 1018.0
20260507033526 51 219 3.0 7.0 0.00 0.02 0.02 65 1018.0
20260507033057 51 219 3.0 7.0 0.00 0.02 0.02 65 1018.0
20260507032613 51 219 4.0 7.0 0.00 0.02 0.02 65 1018.0
20260507032029 51 217 3.0 6.0 0.00 0.02 0.02 64 1018.0
20260507031554 51 217 3.0 6.0 0.00 0.02 0.02 65 1017.9
20260507031026 51 216 3.0 5.0 0.00 0.02 0.02 65 1017.9
20260507030526 51 215 2.0 5.0 0.00 0.02 0.02 64 1017.8
20260507030104 51 215 2.0 6.0 0.00 0.02 0.02 64 1017.9
20260507025525 51 216 3.0 6.0 0.00 0.02 0.02 63 1017.9
20260507025027 51 213 3.0 6.0 0.00 0.02 0.02 63 1017.9
20260507024601 51 213 2.0 6.0 0.00 0.02 0.02 63 1017.9
20260507024025 51 214 3.0 6.0 0.00 0.02 0.02 63 1017.9
20260507023525 51 213 3.0 7.0 0.00 0.02 0.02 63 1017.9
20260507023041 51 213 4.0 7.0 0.00 0.02 0.02 63 1017.9
20260507022525 52 216 4.0 7.0 0.00 0.02 0.02 63 1017.8
20260507022025 52 216 4.0 6.0 0.00 0.02 0.02 63 1017.7
20260507021553 52 214 3.0 5.0 0.00 0.02 0.02 62 1017.7
20260507021026 52 215 3.0 6.0 0.00 0.02 0.02 62 1017.6
20260507020526 52 215 3.0 6.0 0.00 0.02 0.02 61 1017.5
20260507020055 51 214 3.0 6.0 0.00 0.02 0.02 62 1017.6
20260507015525 51 213 2.0 4.0 0.00 0.02 0.02 61 1017.4
20260507015025 51 213 2.0 5.0 0.00 0.02 0.02 60 1017.3
20260507014554 51 213 2.0 5.0 0.00 0.02 0.02 59 1017.2
20260507014026 52 214 2.0 5.0 0.00 0.02 0.02 59 1017.1
20260507013525 52 214 3.0 5.0 0.00 0.02 0.02 58 1017.2
20260507013043 52 215 2.0 5.0 0.00 0.02 0.02 56 1017.2
20260507012529 52 215 2.0 5.0 0.00 0.02 0.02 55 1017.2
20260507012026 53 201 2.0 4.0 0.00 0.02 0.02 54 1017.1
20260507011547 53 201 2.0 5.0 0.00 0.02 0.02 53 1017.2
20260507011028 54 202 2.0 5.0 0.00 0.02 0.02 52 1017.2
20260507010525 54 202 3.0 5.0 0.00 0.02 0.02 50 1017.2
20260507010046 55 202 3.0 6.0 0.00 0.02 0.02 49 1017.1
20260507005525 55 245 3.0 6.0 0.00 0.02 0.02 48 1017.0
20260507005032 55 210 3.0 6.0 0.00 0.02 0.02 47 1017.2
20260507004546 55 230 3.0 7.0 0.00 0.02 0.02 46 1017.3
20260507004026 56 229 3.0 9.0 0.00 0.02 0.02 46 1017.2
20260507003526 56 228 4.0 9.0 0.00 0.02 0.02 45 1017.1
20260507003042 56 232 3.0 9.0 0.00 0.02 0.02 45 1017.2
20260507002525 57 225 3.0 9.0 0.00 0.02 0.02 45 1017.3
20260507002026 57 234 3.0 9.0 0.00 0.02 0.02 44 1017.2
20260507001541 58 236 3.0 9.0 0.00 0.02 0.02 45 1017.2
20260507001025 58 240 4.0 10.0 0.00 0.02 0.02 44 1017.2
20260507000525 58 250 3.0 10.0 0.00 0.02 0.02 43 1017.2
20260507000043 58 227 5.0 10.0 0.00 0.02 0.02 44 1017.3
20260506235525 58 268 6.0 10.0 0.00 0.02 0.02 44 1017.3
20260506235025 58 227 3.0 8.0 0.00 0.02 0.02 42 1017.4
20260506234553 59 236 4.0 8.0 0.00 0.02 0.02 40 1017.4
20260506234026 59 290 3.0 10.0 0.00 0.02 0.02 38 1017.4
20260506233526 59 234 3.0 10.0 0.00 0.02 0.02 39 1017.4
20260506233051 59 302 2.0 8.0 0.00 0.02 0.02 39 1017.4
20260506232525 59 306 4.0 8.0 0.00 0.02 0.02 39 1017.4
20260506232025 59 292 4.0 8.0 0.00 0.02 0.02 37 1017.4
20260506231552 59 0 3.0 8.0 0.00 0.02 0.02 41 1017.3
20260506231026 59 254 3.0 8.0 0.00 0.02 0.02 41 1017.4
20260506230529 59 273 3.0 9.0 0.00 0.02 0.02 39 1017.3
20260506230046 59 225 5.0 11.0 0.00 0.02 0.02 40 1017.4
20260506225525 59 297 5.0 11.0 0.00 0.02 0.02 38 1017.5
20260506225027 59 355 1.0 5.0 0.00 0.02 0.02 41 1017.4
20260506224542 59 317 2.0 8.0 0.00 0.02 0.02 39 1017.4
20260506224025 59 230 2.0 8.0 0.00 0.02 0.02 41 1017.4
20260506223523 59 267 1.0 8.0 0.00 0.02 0.02 39 1017.4
20260506223038 58 284 1.0 8.0 0.00 0.02 0.02 42 1017.5
20260506222526 57 317 3.0 8.0 0.00 0.02 0.02 41 1017.6
20260506222023 58 280 1.0 6.0 0.00 0.02 0.02 44 1017.6
20260506221545 58 279 2.0 7.0 0.00 0.02 0.02 42 1017.6
20260506221023 58 0 1.0 7.0 0.00 0.02 0.02 41 1017.6
20260506220526 58 265 0.0 7.0 0.00 0.02 0.02 42 1017.6
20260506220052 58 262 1.0 7.0 0.00 0.02 0.02 43 1017.7
20260506215525 58 251 3.0 7.0 0.00 0.02 0.02 42 1017.7
20260506215023 58 238 1.0 7.0 0.00 0.02 0.02 42 1017.8
20260506214546 58 0 1.0 7.0 0.00 0.02 0.02 43 1017.8
20260506214029 58 288 2.0 7.0 0.00 0.02 0.02 41 1017.9
20260506213526 58 285 3.0 8.0 0.00 0.02 0.02 43 1017.8
20260506213043 58 281 3.0 10.0 0.00 0.02 0.02 40 1017.9
20260506212523 58 322 4.0 10.0 0.00 0.02 0.02 41 1018.0
20260506212028 59 285 1.0 3.0 0.00 0.02 0.02 41 1018.0
20260506211541 58 0 0.0 3.0 0.00 0.02 0.02 42 1018.0
20260506211025 58 15 0.0 5.0 0.00 0.02 0.02 41 1018.1
20260506210523 58 15 1.0 5.0 0.00 0.02 0.02 41 1018.1
20260506210041 57 111 2.0 6.0 0.00 0.02 0.02 45 1018.2
20260506205525 57 0 0.0 6.0 0.00 0.02 0.02 44 1018.3
20260506205023 57 69 2.0 7.0 0.00 0.02 0.02 43 1018.4
20260506204548 57 128 3.0 7.0 0.00 0.02 0.02 42 1018.4
20260506204026 57 63 1.0 4.0 0.00 0.02 0.02 43 1018.4
20260506203527 57 63 0.0 4.0 0.00 0.02 0.02 42 1018.5
20260506203046 57 12 2.0 6.0 0.00 0.02 0.02 42 1018.6
20260506202526 57 0 1.0 6.0 0.00 0.02 0.02 42 1018.6
20260506202026 57 348 3.0 6.0 0.00 0.02 0.02 43 1018.7
20260506201542 57 0 0.0 6.0 0.00 0.02 0.02 42 1018.7
20260506201026 57 355 3.0 8.0 0.00 0.02 0.02 41 1018.9
20260506200525 57 315 0.0 8.0 0.00 0.02 0.02 45 1018.9
20260506200044 57 309 3.0 8.0 0.00 0.02 0.02 41 1019.1
20260506195529 57 309 2.0 7.0 0.00 0.02 0.02 42 1019.2
20260506195026 57 294 1.0 7.0 0.00 0.02 0.02 42 1019.2
20260506194547 57 0 1.0 6.0 0.00 0.02 0.02 42 1019.3
20260506194025 57 86 2.0 8.0 0.00 0.02 0.02 42 1019.3
20260506193525 57 337 2.0 8.0 0.00 0.02 0.02 41 1019.3
20260506193045 57 341 3.0 7.0 0.00 0.02 0.02 43 1019.3
20260506192527 57 0 0.0 7.0 0.00 0.02 0.02 44 1019.3
20260506192029 57 192 3.0 7.0 0.00 0.02 0.02 42 1019.3
20260506191545 57 259 3.0 8.0 0.00 0.02 0.02 44 1019.3
20260506191026 57 212 3.0 9.0 0.00 0.02 0.02 45 1019.3
20260506190523 57 250 2.0 9.0 0.00 0.02 0.02 44 1019.3
20260506190042 56 86 1.0 4.0 0.00 0.02 0.02 46 1019.3
20260506185525 56 119 1.0 7.0 0.00 0.02 0.02 46 1019.3
20260506185025 55 220 3.0 7.0 0.00 0.02 0.02 46 1019.3
20260506184550 55 266 1.0 7.0 0.00 0.02 0.02 45 1019.4
20260506184026 55 325 2.0 8.0 0.00 0.02 0.02 46 1019.4
20260506183526 55 281 4.0 8.0 0.00 0.02 0.02 44 1019.5
20260506183047 56 304 2.0 10.0 0.00 0.02 0.02 45 1019.4
20260506182523 55 283 3.0 10.0 0.00 0.02 0.02 46 1019.4
20260506182027 56 290 3.0 10.0 0.00 0.02 0.02 46 1019.5
20260506181544 55 334 3.0 8.0 0.00 0.02 0.02 44 1019.4
20260506181027 56 309 2.0 5.0 0.00 0.02 0.02 45 1019.5
20260506180526 55 0 0.0 9.0 0.00 0.02 0.02 48 1019.6
20260506180046 55 0 1.0 9.0 0.00 0.02 0.02 47 1019.6
20260506175525 54 286 2.0 9.0 0.00 0.02 0.02 48 1019.7
20260506175023 54 253 2.0 9.0 0.00 0.02 0.02 48 1019.7
20260506174540 55 275 5.0 9.0 0.00 0.02 0.02 46 1019.7
20260506174028 55 276 3.0 7.0 0.00 0.02 0.02 49 1019.7
20260506173525 54 360 1.0 7.0 0.00 0.02 0.02 50 1019.7
20260506173121 54 300 3.0 7.0 0.00 0.02 0.02 49 1019.8
20260506172525 54 344 1.0 7.0 0.00 0.02 0.02 50 1019.8
20260506172026 54 199 3.0 7.0 0.00 0.02 0.02 49 1019.8
20260506171547 54 143 2.0 6.0 0.00 0.02 0.02 48 1019.9
20260506171029 54 22 4.0 6.0 0.00 0.02 0.02 49 1019.9
20260506170525 54 293 2.0 7.0 0.00 0.02 0.02 50 1020.1
20260506170046 54 285 3.0 10.0 0.00 0.02 0.02 55 1020.0
20260506165526 53 238 3.0 10.0 0.00 0.02 0.02 50 1020.1
20260506165026 53 294 5.0 10.0 0.00 0.02 0.02 54 1020.1
20260506164548 54 284 4.0 9.0 0.00 0.02 0.02 57 1020.1
20260506164027 54 304 4.0 9.0 0.00 0.02 0.02 58 1020.1
20260506163528 54 174 2.0 6.0 0.00 0.02 0.02 62 1020.1
20260506163043 53 175 2.0 7.0 0.00 0.02 0.02 59 1020.1
20260506162525 52 265 0.0 7.0 0.00 0.02 0.02 61 1020.1
20260506162028 52 0 2.0 7.0 0.00 0.02 0.02 62 1020.2
20260506161544 52 254 1.0 6.0 0.00 0.02 0.02 64 1020.2
20260506161025 52 278 3.0 6.0 0.00 0.02 0.02 67 1020.2
20260506160525 51 271 1.0 8.0 0.00 0.02 0.02 66 1020.1
20260506160047 51 288 0.0 8.0 0.00 0.02 0.02 66 1020.0
20260506155525 51 228 3.0 8.0 0.00 0.02 0.02 69 1020.0
20260506155026 50 288 2.0 8.0 0.00 0.02 0.02 72 1020.1
20260506154552 50 225 3.0 7.0 0.00 0.02 0.02 75 1020.1
20260506154026 50 270 2.0 4.0 0.00 0.02 0.02 77 1020.1